[[{"header":{"parameterUnit":"m.s-1","parameterCategory":1,"la1":30.2991,"la2":30.254,"lo1":-89.0895,"lo2":-89.0444,"dy":0.0017,"dx":0.0017,"nx":28,"ny":28,"refTime":"2025-11-06T03:00:00:Z","depth":0,"parameterNumber":2,"parameterNumberName":"U-component_of_WINDS"},"data":[0,0,0,0,0,0,0,0,0,0,0,0,0,0,0,0,0,0,0,0,0,0,0,0,0,0,0,0,0,0,0,0,0,0,0,0,0,0,0,0,0,0,0,0,0,0,0,0,0,0,0,0,0,0,0,0,0,0,-0.2806,-0.2806,0,-0.2822,-0.2822,-0.2822,-0.2835,-0.2836,-0.2836,-0.2836,-0.2853,-0.2853,-0.2853,0,0,0,0,0,0,0,0,0,0,0,0,0,-0.2788,-0.2788,-0.2806,-0.2806,-0.2807,-0.2822,-0.2822,-0.2822,-0.2835,-0.2836,-0.2836,-0.2836,-0.2853,-0.2853,-0.2853,0,0,0,0,0,0,0,0,0,0,0,0,0,-0.2799,-0.2788,-0.2806,-0.2815,-0.2816,-0.2822,-0.2822,-0.2822,-0.2835,-0.2836,-0.2836,-0.2836,-0.2853,-0.2853,-0.2853,-0.2852,0,0,-0.2855,-0.2855,0,0,0,0,0,0,0,0,-0.2798,-0.2799,-0.2814,-0.2814,-0.2815,-0.2827,-0.2822,-0.2832,-0.2835,-0.2828,-0.2836,-0.2836,-0.2844,-0.2845,-0.2848,-0.2853,-0.2854,-0.2855,-0.2855,-0.2855,-0.2856,0,0,0,0,0,0,0,-0.2797,-0.2799,-0.2813,-0.2814,-0.2815,-0.2818,-0.282,-0.2824,-0.2835,-0.2829,-0.283,-0.2831,-0.2845,-0.2847,-0.2848,-0.2854,-0.2855,-0.2855,-0.2856,-0.2856,-0.2858,-0.2858,0,0,0,0,0,0,-0.2795,-0.2798,-0.2812,-0.2813,-0.2807,-0.2818,-0.282,-0.2823,-0.2835,-0.2837,-0.2831,-0.2832,-0.2846,-0.2848,-0.2849,-0.2848,-0.2855,-0.2856,-0.2856,-0.2858,-0.2858,-0.2858,0,0,0,0,0,0,-0.2795,-0.2796,-0.2811,-0.2806,-0.2808,-0.2818,-0.2821,-0.2823,-0.2826,-0.2836,-0.2839,-0.2832,-0.2847,-0.2848,-0.2851,-0.2848,-0.2856,-0.2857,-0.2859,-0.2858,-0.2858,-0.2845,0,0,0,0,0,0,-0.2794,-0.2796,-0.2796,-0.2806,-0.2808,-0.2813,-0.2821,-0.2823,-0.2827,-0.2828,-0.2838,-0.284,-0.2847,-0.285,-0.2851,-0.2849,-0.2857,-0.2859,-0.2858,-0.2858,-0.2846,-0.2844,-0.2843,0,0,0,0,0,-0.2793,-0.2792,-0.2796,-0.2797,-0.2808,-0.2813,-0.2815,-0.2823,-0.2826,-0.2826,-0.2833,-0.2839,-0.2848,-0.285,-0.2852,-0.285,-0.2859,-0.2858,-0.2858,-0.2847,-0.2845,-0.2843,0,0,0,0,0,0,-0.2783,-0.2794,-0.2798,-0.28,-0.2805,-0.2815,-0.2815,-0.2821,-0.2826,-0.2827,-0.2837,-0.2839,-0.284,-0.2845,-0.2847,-0.2849,-0.2854,-0.2854,-0.2845,-0.2844,-0.2842,-0.2841,-0.2857,0,0,0,0,0,-0.278,-0.2783,-0.2793,-0.2794,-0.2796,-0.2805,-0.2808,-0.2813,-0.282,-0.2822,-0.2829,-0.2835,-0.2839,-0.2842,-0.2846,-0.2847,-0.2849,-0.2846,-0.2844,-0.2843,-0.2843,-0.2842,-0.2841,-0.2856,-0.2856,-0.2856,0,0,-0.2776,-0.2782,-0.2784,-0.2792,-0.2797,-0.2799,-0.2807,-0.281,-0.2812,-0.2823,-0.2825,-0.283,-0.2838,-0.2839,-0.284,-0.2843,-0.2839,-0.2843,-0.2842,-0.2842,-0.2842,-0.284,-0.2839,-0.2856,-0.2856,-0.2856,0,0,-0.2769,-0.2774,-0.2775,-0.2779,-0.2786,-0.2792,-0.2792,-0.2801,-0.2805,-0.2807,-0.2815,-0.2818,-0.2825,-0.2829,-0.2833,-0.2826,-0.2832,-0.2827,-0.282,-0.2819,-0.2818,-0.2817,-0.2814,-0.2813,-0.2827,-0.2827,-0.2826,0,-0.2763,-0.2767,-0.2775,-0.2777,-0.278,-0.2788,-0.2789,-0.2793,-0.2801,-0.2803,-0.2806,-0.2815,-0.282,-0.2822,-0.282,-0.2823,-0.2823,-0.2826,-0.2818,-0.2817,-0.2816,-0.2813,-0.2812,-0.2826,-0.2826,-0.2826,-0.2826,0,-0.2759,-0.2761,-0.2761,-0.2768,-0.277,-0.2772,-0.2779,-0.2781,-0.2786,-0.2791,-0.2794,-0.28,-0.2806,-0.2807,-0.2812,-0.2809,-0.2811,-0.2816,-0.2822,-0.2814,-0.2811,-0.281,-0.2825,-0.2825,-0.2825,-0.2825,0,0,-0.2747,-0.2756,-0.2756,-0.2759,-0.2766,-0.2768,-0.277,-0.2774,-0.2775,-0.278,-0.2781,-0.2786,-0.279,-0.2794,-0.28,-0.2799,-0.2792,-0.2804,-0.2805,-0.2801,-0.2788,-0.2784,-0.2783,-0.2796,-0.2796,-0.2796,-0.2787,0,-0.2741,-0.2743,-0.2749,-0.2749,-0.2751,-0.2759,-0.276,-0.2765,-0.2769,-0.2771,-0.2777,-0.278,-0.2786,-0.2788,-0.2787,-0.2793,-0.279,-0.2794,-0.2797,-0.2797,-0.2794,-0.2782,-0.2778,-0.2769,-0.2786,-0.2786,-0.2786,0,-0.2735,-0.2738,-0.2738,-0.2744,-0.2745,-0.2746,-0.275,-0.2752,-0.2757,-0.276,-0.2763,-0.2769,-0.2771,-0.2776,-0.2778,-0.278,-0.2782,-0.2784,-0.2784,-0.2785,-0.2791,-0.2781,-0.2767,-0.2766,-0.2785,-0.2785,-0.2785,0,-0.2725,-0.273,-0.273,-0.2732,-0.2739,-0.2739,-0.2742,-0.2748,-0.2749,-0.2753,-0.2754,-0.2758,-0.276,-0.2763,-0.2769,-0.2773,-0.277,-0.2776,-0.2772,-0.2772,-0.2771,-0.2771,-0.2757,-0.2773,-0.2773,-0.2773,-0.2773,0,-0.2718,-0.2717,-0.2725,-0.2726,-0.2725,-0.2732,-0.2731,-0.2735,-0.2739,-0.274,-0.2747,-0.2748,-0.2757,-0.2758,-0.2764,-0.2764,-0.2765,-0.2767,-0.2768,-0.2766,-0.2766,-0.2767,-0.2768,-0.2772,-0.2773,-0.2773,-0.2773,0,-0.2707,-0.2713,-0.2713,-0.2719,-0.2721,-0.272,-0.2726,-0.2726,-0.273,-0.2731,-0.2732,-0.2739,-0.2741,-0.2748,-0.2752,-0.2755,-0.2753,-0.2756,-0.2751,-0.2752,-0.2748,-0.2748,-0.2733,-0.2731,-0.2749,-0.2749,-0.2749,0,-0.2702,-0.2702,-0.2707,-0.2708,-0.2711,-0.2712,-0.2713,-0.272,-0.2721,-0.2726,-0.2725,-0.2728,-0.273,-0.2733,-0.2738,-0.2741,-0.2744,-0.2739,-0.2745,-0.2742,-0.2743,-0.2743,-0.2742,-0.2737,-0.2737,-0.2737,-0.2737,0,-0.2693,-0.2695,-0.2696,-0.2698,-0.27,-0.2702,-0.2705,-0.2705,-0.2712,-0.2713,-0.2715,-0.2716,-0.2719,-0.2722,-0.2725,-0.2728,-0.2733,-0.2735,-0.2734,-0.2732,-0.2729,-0.273,-0.2747,-0.2735,-0.2735,-0.2736,-0.2736,-0.2736,-0.2684,-0.2684,-0.2687,-0.2688,-0.2691,-0.2693,-0.2693,-0.2696,-0.2698,-0.27,-0.2704,-0.2705,-0.2709,-0.2714,-0.2716,-0.2717,-0.272,-0.2719,-0.2719,-0.2718,-0.2717,-0.2728,-0.2718,-0.2718,-0.2718,-0.2718,-0.2718,0,-0.2675,-0.2677,-0.2678,-0.268,-0.2681,-0.2685,-0.2687,-0.2688,-0.2688,-0.2691,-0.2693,-0.2694,-0.2696,-0.2701,-0.2703,-0.2702,-0.2705,-0.2702,-0.2703,-0.2703,-0.2714,-0.2715,-0.27,-0.27,-0.27,-0.27,-0.27,-0.27,-0.267,-0.2668,-0.2671,-0.267,-0.2673,-0.2673,-0.2674,-0.2676,-0.2678,-0.2678,-0.2679,-0.2682,-0.2686,-0.2688,-0.2689,-0.2691,-0.2691,-0.2688,-0.269,-0.2701,-0.2702,-0.2704,-0.2704,-0.2688,-0.2688,-0.2678,-0.2678,-0.2678]},{"header":{"parameterUnit":"m.s-1","parameterCategory":1,"la1":30.2991,"la2":30.254,"lo1":-89.0895,"lo2":-89.0444,"dy":0.0017,"dx":0.0017,"nx":28,"ny":28,"refTime":"2025-11-06T03:00:00:Z","depth":0,"parameterNumber":3,"parameterNumberName":"V-component_of_WINDS"},"data":[0,0,0,0,0,0,0,0,0,0,0,0,0,0,0,0,0,0,0,0,0,0,0,0,0,0,0,0,0,0,0,0,0,0,0,0,0,0,0,0,0,0,0,0,0,0,0,0,0,0,0,0,0,0,0,0,0,0,4.9903,4.9904,0,4.9964,4.9964,4.9965,4.9991,4.9991,4.9991,4.9991,5.005,5.0052,5.0053,0,0,0,0,0,0,0,0,0,0,0,0,0,4.9811,4.9813,4.9903,4.9904,4.9905,4.9963,4.9964,4.9965,4.9991,4.9991,4.9991,4.9991,5.005,5.0052,5.0054,0,0,0,0,0,0,0,0,0,0,0,0,0,4.9859,4.9814,4.9903,4.9925,4.9927,4.9963,4.9964,4.9965,4.9991,4.9991,4.9991,4.9991,5.0049,5.0051,5.0054,5.0072,0,0,5.0061,5.0063,0,0,0,0,0,0,0,0,4.9857,4.9863,4.9921,4.9923,4.9926,4.997,4.9954,5.0001,4.9991,4.9967,4.9991,4.9991,5.0023,5.0028,5.0039,5.0075,5.0077,5.0062,5.0063,5.0064,5.0065,0,0,0,0,0,0,0,4.9853,4.986,4.9927,4.9922,4.9925,4.9932,4.9939,4.9963,4.9995,4.9969,4.9971,4.9978,5.0025,5.0037,5.0041,5.0078,5.0062,5.0064,5.0065,5.0066,5.0136,5.0137,0,0,0,0,0,0,4.9847,4.9857,4.9925,4.9929,4.9891,4.9934,4.9941,4.9956,4.9995,5.0001,4.9978,4.9979,5.0033,5.0038,5.0043,5.007,5.0064,5.0067,5.0068,5.0136,5.0136,5.0137,0,0,0,0,0,0,4.9844,4.9852,4.9923,4.9894,4.9903,4.9935,4.9952,4.9957,4.9969,5.0002,5.0007,4.9984,5.0033,5.004,5.0066,5.0072,5.0068,5.007,5.0135,5.0136,5.0137,5.0122,0,0,0,0,0,0,4.9842,4.9851,4.9858,4.9894,4.9905,4.9944,4.9952,4.9958,4.9974,4.9976,5.0009,5.0015,5.0033,5.0062,5.0068,5.0076,5.0072,5.0135,5.0136,5.0136,5.0122,5.0122,5.0122,0,0,0,0,0,4.9838,4.985,4.9858,4.9866,4.9914,4.9944,4.995,4.9972,4.9974,4.9982,5.0004,5.0014,5.0071,5.0064,5.0072,5.008,5.0135,5.0136,5.0136,5.0122,5.0122,5.0122,0,0,0,0,0,0,4.9812,4.9855,4.9864,4.9888,4.9913,4.9948,4.9958,4.9971,4.9994,4.9995,5.002,5.0028,5.0053,5.0069,5.0061,5.0102,5.0104,5.0106,5.0091,5.0091,5.0091,5.0086,5.0074,0,0,0,0,0,4.9809,4.983,4.9867,4.9884,4.9896,4.9925,4.9939,4.9954,4.998,4.999,5.0014,5.0038,5.0063,5.0077,5.0101,5.0125,5.0134,5.0135,5.0134,5.0134,5.0136,5.0154,5.0156,5.0139,5.0139,5.0139,0,0,4.9802,4.9829,4.984,4.9879,4.99,4.9923,4.9933,4.9955,4.9973,4.9993,5.0021,5.0039,5.0068,5.0095,5.0107,5.0109,5.0143,5.0135,5.0135,5.0137,5.0155,5.0157,5.0158,5.014,5.014,5.014,0,0,4.9803,4.9824,4.9843,4.9865,4.9897,4.9917,4.9922,4.9957,4.9971,4.9999,5.0016,5.0037,5.0077,5.0099,5.0115,5.0129,5.0141,5.0136,5.0136,5.0153,5.0154,5.0156,5.0164,5.0166,5.0138,5.0138,5.0138,0,4.9791,4.9825,4.985,4.9873,4.9891,4.9914,4.9934,4.9953,4.9991,5.0004,5.0005,5.0059,5.008,5.0114,5.0118,5.0129,5.0137,5.0132,5.0152,5.0154,5.0155,5.0163,5.0166,5.0137,5.0137,5.0137,5.0137,0,4.981,4.9834,4.9846,4.9885,4.9904,4.9925,4.9954,4.9971,4.9986,5.0006,5.0037,5.0064,5.0095,5.0104,5.0117,5.0141,5.0142,5.0147,5.015,5.0156,5.0164,5.0167,5.0136,5.0136,5.0137,5.0137,0,0,4.9792,4.9849,4.9853,4.9873,4.9912,4.9932,4.9955,4.9988,5.0003,5.0029,5.0051,5.0087,5.0094,5.0113,5.0129,5.0144,5.0158,5.0149,5.015,5.0152,5.019,5.0186,5.0189,5.0166,5.0167,5.0167,5.0188,0,4.98,4.9844,4.9869,4.9903,4.9928,4.9952,4.9973,5.0001,5.0021,5.0046,5.0068,5.0094,5.01,5.0113,5.0129,5.0153,5.0166,5.0152,5.0188,5.0189,5.0181,5.0193,5.0188,5.0206,5.0191,5.0192,5.0192,0,4.9813,4.9842,4.9879,4.9921,4.9932,4.9951,4.9985,5.0008,5.004,5.0055,5.0078,5.0096,5.0124,5.0124,5.0164,5.0154,5.0171,5.0186,5.0187,5.0192,5.0191,5.02,5.0212,5.0216,5.0197,5.0196,5.0196,0,4.9799,4.9848,4.9878,4.9894,4.9942,4.9955,4.9976,5.0009,5.0028,5.0058,5.0072,5.0104,5.0122,5.0147,5.0174,5.0171,5.0213,5.0214,5.0227,5.0226,5.0234,5.0233,5.0251,5.0243,5.0243,5.0243,5.0242,0,4.9805,4.9827,4.9873,4.9891,4.9918,4.9948,4.9974,4.9997,5.0027,5.0051,5.0073,5.0095,5.0129,5.0156,5.0177,5.0209,5.0216,5.023,5.0235,5.0228,5.0227,5.024,5.024,5.0243,5.0243,5.0243,5.0243,0,4.9794,4.9825,4.9859,4.9904,4.9916,4.9934,4.9973,4.9993,5.0017,5.0047,5.0056,5.0093,5.0127,5.0156,5.0199,5.0214,5.0247,5.0253,5.0237,5.024,5.0252,5.0251,5.0279,5.0286,5.0271,5.0271,5.0271,0,4.9795,4.9814,4.9862,4.9881,4.9903,4.9932,4.9953,4.9985,5.0006,5.0048,5.0063,5.0099,5.0129,5.0182,5.0213,5.0247,5.0255,5.0263,5.026,5.0254,5.0258,5.0257,5.0261,5.0263,5.0263,5.0263,5.0263,0,4.9797,4.9813,4.9843,4.988,4.9906,4.9936,4.9967,4.9981,5.0019,5.0042,5.0078,5.0102,5.0149,5.0184,5.0223,5.0245,5.0261,5.0264,5.0269,5.0263,5.0253,5.0261,5.0239,5.0263,5.0263,5.0263,5.0263,5.0263,4.9793,4.9813,4.9851,4.9886,4.9913,4.9943,4.9965,4.9994,5.0024,5.0066,5.0083,5.012,5.0157,5.0212,5.0234,5.0265,5.0267,5.0274,5.0276,5.0277,5.0278,5.0248,5.0271,5.0271,5.0271,5.0271,5.0272,0,4.9798,4.9825,4.9857,4.9901,4.9929,4.9944,4.998,5.0003,5.0036,5.0069,5.01,5.0143,5.018,5.0215,5.0254,5.0272,5.0281,5.0281,5.0281,5.0286,5.0272,5.0265,5.0274,5.0274,5.0274,5.0274,5.0274,5.0274,4.9803,4.9838,4.9859,4.9909,4.9936,4.9975,4.9995,5.0023,5.0051,5.0099,5.013,5.0154,5.019,5.0232,5.0267,5.0277,5.0291,5.029,5.0302,5.0287,5.0287,5.0286,5.028,5.0292,5.0292,5.0315,5.0315,5.0315]}]]